カタログに戻る

STARLINK-1265

運用中通信VLEO
NORAD 45406·PAYLOAD·🇺🇸 United States

打ち上げ Mar 18, 2020 から Cape Canaveral Space Force Station

Loading…

次のパス (今後24時間)

TLE

最新Source: CelesTrak SupGP

元期: Sep 14, 2026, 14:00 UTC

1 45406C 20019AY  26257.58381944  .00086755  00000+0  16249-2 0  2576
2 45406  53.1507 320.5506 0004102   1.6982 296.9823 15.48032982    18

AllMySatでSTARLINK-1265をリアルタイム追跡

Download on the App Store